This is the latest recevied weather packets stored in our database for station/object N7CEE. If no packets are shown the sender has not sent any weather packets the latest 1 day(s).
| Time | Temp. | Humidity | Pressure | Rain* | Wind** | Luminosity | Snow |
|---|---|---|---|---|---|---|---|
| 1836274560 | 13.33° C | 82% | 1026.3 hPa | 0 mm | 0 m/s | 0 W/m² | - |
| 1836274414 | 13.33° C | 83% | 1026.5 hPa | 0 mm | 0 m/s | 0 W/m² | - |
| 1836274258 | 13.33° C | 82% | 1026.5 hPa | 0 mm | 0 m/s | 0 W/m² | - |
| 1836274112 | 13.33° C | 82% | 1026.2 hPa | 0 mm | 0 m/s | 0 W/m² | - |
| 1836273957 | 13.33° C | 82% | 1026.5 hPa | 0 mm | 0 m/s | 0 W/m² | - |
| 1778034102 | 3.33° C | 96% | 1019.2 hPa | 0 mm | 0 m/s | 1 W/m² | - |
| 1778033800 | 3.33° C | 96% | 1019.3 hPa | 0 mm | 0.45 m/s, 108° | 1 W/m² | - |
| 1778033496 | 3.33° C | 96% | 1018.8 hPa | 0 mm | 0 m/s | 2 W/m² | - |
| 1778033194 | 3.33° C | 96% | 1019 hPa | 0 mm | 0 m/s | 3 W/m² | - |
| 1778032891 | 3.33° C | 95% | 1018.9 hPa | 0 mm | 0 m/s | 4 W/m² | - |
| 1778032589 | 3.33° C | 95% | 1018.9 hPa | 0 mm | 0 m/s | 6 W/m² | - |
| 1778032285 | 3.33° C | 95% | 1018.8 hPa | 0 mm | 0 m/s | 8 W/m² | - |
| 1778031983 | 3.33° C | 95% | 1018.8 hPa | 0 mm | 0 m/s | 12 W/m² | - |
| 1778031678 | 3.33° C | 94% | 1018.9 hPa | 0 mm | 0 m/s | 16 W/m² | - |
| 1778031377 | 3.33° C | 94% | 1018.4 hPa | 0 mm | 0 m/s | 20 W/m² | - |
| 1778031073 | 3.33° C | 94% | 1018.8 hPa | 0 mm | 0 m/s | 24 W/m² | - |
| 1778030770 | 3.33° C | 94% | 1018.8 hPa | 0 mm | 0 m/s | 28 W/m² | - |
| 1778030466 | 3.33° C | 94% | 1018.8 hPa | 0 mm | 0 m/s | 30 W/m² | - |
| 1778030164 | 3.33° C | 94% | 1018.9 hPa | 0 mm | 0 m/s | 29 W/m² | - |
| 1778029860 | 3.33° C | 94% | 1019 hPa | 0 mm | 0 m/s | 30 W/m² | - |
| 1778029554 | 3.33° C | 94% | 1018.7 hPa | 0 mm | 0 m/s | 34 W/m² | - |
| 1778029250 | 3.33° C | 94% | 1018.7 hPa | 0 mm | 0 m/s | 37 W/m² | - |
| 1778028947 | 3.33° C | 93% | 1018.9 hPa | 0 mm | 0 m/s | 39 W/m² | - |
| 1778028643 | 2.78° C | 93% | 1018.9 hPa | 0 mm | 0 m/s | 38 W/m² | - |
| 1778028341 | 2.78° C | 93% | 1018.9 hPa | 0 mm | 0 m/s | 39 W/m² | - |
* Rain latest hour (hover to see other rain measurements)
** Current wind speed in m/s (hover to see current wind gust speed)